Temp
1 1 1 1 1 1 1 2 2 2 2 2 2 2 2 2 1 1 1 0 0 -0 0 0 0 -0 -0 -0 0 1 1 2 2 2 2 2 2 2 2 3 3 3
1 0 1 1 1 1 1 1 1 1 2 2 2 2 2 2 1 1 1 1 0 0 -0 -0 0 0 -0 -1 -1 -1 -0 0 1 1 2 2 2 2 2 2 2 2
0 0 0 0 0 1 1 1 1 1 1 1 1 1 1 1 1 1 1 1 1 0 -0 -0 -0 -0 -0 -1 -1 -1 -1 -1 -0 0 1 1 1 1 1 1 2 2
0 0 -0 0 0 0 0 1 1 1 1 1 1 1 1 1 1 1 1 1 0 0 0 -0 -1 -1 -1 -1 -1 -1 -1 -1 -1 -0 -0 0 0 1 1 1 1 1
-0 -0 -0 -0 -0 0 0 0 0 1 0 0 0 1 1 1 1 1 1 1 0 0 0 -0 -1 -1 -1 -1 -1 -1 -1 -1 -1 -0 -0 0 0 1 1 1 1 1
-1 -1 -1 -0 -0 -0 0 0 0 0 0 0 0 0 0 0 0 1 1 1 1 0 0 0 -0 -1 -1 -1 -1 -2 -2 -2 -1 -1 -0 0 0 1 1 1 1 1
-1 -1 -1 -0 -0 -0 -0 0 -0 -0 -0 -0 -0 -0 -0 -0 -0 0 0 1 1 0 0 0 0 -0 -1 -1 -2 -2 -2 -2 -2 -1 -1 -0 -0 0 0 0 0 0
-1 -1 -1 -1 -1 -1 -1 -0 -0 -0 -0 -0 -0 -0 -0 -0 -0 -0 -0 0 0 0 0 0 0 0 -0 -1 -1 -1 -2 -2 -2 -2 -1 -1 -1 -0 -0 -0 -0 -0
-2 -2 -2 -2 -1 -1 -1 -1 -0 -0 -0 -0 -1 -1 -1 -1 -1 -1 -0 -0 -0 0 0 0 0 -0 -0 -1 -1 -1 -1 -2 -2 -2 -2 -1 -1 -1 -1 -0 -1 -1
-2 -2 -2 -2 -2 -1 -0 -0 -0 -0 0 -0 -1 -1 -1 -1 -1 -1 -1 -1 -1 -0 -0 -0 -0 -0 -1 -1 -1 -1 -1 -1 -2 -2 -2 -2 -1 -1 -1 -1 -1 -1
-3 -3 -2 -2 -2 -1 -1 -0 -0 -0 0 0 -0 -1 -1 -1 -1 -1 -1 -1 -1 -1 -1 -1 -1 -1 -1 -1 -1 -1 -1 -1 -1 -2 -2 -2 -2 -2 -2 -1 -2 -2
-3 -3 -2 -2 -1 -1 -1 -1 -1 -0 -0 -0 -0 -0 -1 -1 -1 -1 -1 -1 -1 -1 -1 -1 -1 -1 -1 -1 -1 -1 -1 -1 -1 -2 -2 -2 -2 -2 -2 -2 -2 -2
-3 -2 -2 -2 -2 -1 -1 -1 -1 -1 -1 -1 -0 -0 -0 -1 -1 -1 -1 -1 -1 -1 -1 -2 -2 -2 -2 -1 -2 -2 -1 -1 -2 -2 -2 -2 -2 -2 -2 -2 -3 -3
-3 -3 -3 -2 -2 -2 -2 -2 -2 -2 -1 -1 -1 -0 -0 -1 -1 -1 -1 -1 -1 -1 -1 -2 -2 -2 -2 -2 -2 -2 -2 -2 -2 -2 -2 -2 -2 -3 -3 -3 -3 -3
-4 -4 -4 -3 -3 -3 -3 -3 -2 -2 -2 -2 -1 -0 -0 -1 -1 -1 -1 -1 -1 -1 -1 -2 -2 -2 -2 -2 -2 -2 -2 -2 -2 -2 -3 -3 -3 -3 -3 -3 -3 -3
-5 -5 -4 -4 -4 -4 -3 -3 -3 -3 -3 -2 -1 -1 -0 -1 -1 -1 -1 -1 -1 -1 -1 -2 -2 -2 -2 -2 -2 -2 -2 -2 -2 -2 -2 -3 -3 -3 -3 -3 -3 -3
-6 -5 -5 -5 -4 -4 -4 -4 -4 -4 -3 -3 -2 -1 -1 -1 -1 -1 -1 -2 -2 -2 -2 -2 -2 -2 -2 -2 -2 -2 -2 -2 -2 -2 -2 -3 -3 -3 -3 -3 -3 -3
-6 -6 -6 -6 -5 -5 -5 -5 -5 -4 -4 -3 -2 -2 -2 -2 -2 -2 -2 -2 -2 -2 -2 -2 -2 -2 -2 -2 -2 -2 -2 -2 -2 -2 -2 -3 -3 -3 -3 -3 -3 -4
-7 -7 -7 -6 -6 -6 -6 -5 -5 -5 -5 -4 -3 -2 -2 -2 -2 -2 -2 -2 -2 -2 -2 -2 -2 -2 -2 -2 -2 -2 -2 -2 -2 -2 -2 -3 -3 -3 -3 -4 -4 -4
-8 -8 -7 -7 -7 -7 -7 -6 -6 -5 -5 -4 -3 -2 -2 -2 -2 -2 -2 -2 -2 -2 -2 -2 -2 -2 -2 -2 -2 -2 -2 -2 -2 -2 -2 -2 -3 -3 -4 -4 -4 -4
-9 -9 -8 -8 -8 -8 -8 -7 -6 -6 -5 -4 -3 -2 -2 -2 -2 -2 -2 -2 -2 -2 -2 -2 -2 -2 -2 -2 -2 -2 -2 -2 -2 -2 -2 -2 -3 -4 -4 -4 -4 -5
-10 -9 -9 -9 -8 -8 -8 -8 -7 -6 -5 -4 -3 -2 -2 -2 -1 -1 -1 -2 -2 -2 -2 -2 -2 -2 -2 -2 -2 -2 -2 -2 -2 -2 -2 -3 -3 -4 -4 -5 -5 -5
-10 -10 -10 -9 -9 -9 -9 -8 -7 -6 -5 -3 -3 -2 -2 -2 -2 -1 -1 -2 -2 -2 -2 -2 -2 -2 -2 -2 -2 -2 -2 -2 -2 -3 -3 -4 -4 -5 -5 -5 -6 -6
-11 -11 -11 -10 -10 -10 -9 -9 -8 -6 -5 -4 -3 -2 -2 -2 -2 -2 -2 -2 -2 -2 -2 -2 -2 -2 -2 -2 -2 -2 -2 -3 -3 -4 -5 -5 -6 -6 -6 -6 -6 -6
-12 -12 -11 -11 -11 -11 -10 -9 -8 -7 -5 -4 -3 -3 -2 -2 -2 -2 -2 -2 -2 -2 -2 -2 -2 -2 -2 -2 -2 -2 -3 -3 -4 -5 -6 -6 -6 -7 -7 -7 -7 -7
-13 -12 -12 -11 -11 -11 -11 -9 -8 -7 -5 -4 -3 -3 -2 -2 -2 -2 -2 -2 -2 -2 -2 -2 -2 -2 -3 -3 -3 -3 -3 -3 -4 -5 -6 -6 -7 -7 -7 -7 -7 -7
Height
723 721 719 717 714 712 710 709 707 705 703 701 700 698 697 697 696 696 695 695 694 694 695 695 696 697 698 700 701 702 702 702 702 704 705 706 706 707 708 709 710 710
720 718 716 714 711 709 707 705 703 702 700 698 697 695 694 694 693 693 693 692 692 692 692 692 692 693 694 695 696 698 699 700 700 701 702 703 703 703 704 704 705 707
717 715 713 710 708 706 704 702 700 698 697 695 694 693 692 691 691 690 690 690 690 690 690 690 689 689 689 690 692 694 695 697 697 698 699 699 700 700 700 700 701 702
713 711 709 707 705 703 701 699 697 696 694 693 692 691 690 689 688 688 688 687 687 687 687 687 686 686 686 687 688 689 691 693 694 695 695 695 695 696 696 696 697 697
710 707 705 703 701 700 698 696 694 693 692 690 689 689 688 687 686 685 685 685 684 684 684 684 684 684 684 684 684 685 686 688 689 690 691 690 690 690 691 692 693 694
706 704 702 700 698 696 694 693 691 690 689 688 687 686 685 684 684 683 682 682 681 681 681 680 681 681 681 681 681 681 681 682 683 685 685 685 685 686 686 687 688 690
702 700 698 696 694 692 691 689 688 686 685 685 683 683 682 681 681 680 679 679 678 678 677 677 677 677 678 678 677 677 677 678 678 680 680 680 681 682 682 683 684 686
698 696 694 693 690 688 687 685 684 683 682 681 680 679 679 678 678 677 676 676 675 674 674 674 674 674 675 675 674 673 673 673 674 675 676 676 677 677 678 679 680 682
695 692 690 689 687 684 683 682 680 679 678 677 676 676 675 675 674 674 673 672 672 671 670 670 670 670 671 671 671 670 670 670 670 670 670 671 672 673 674 675 677 678
691 689 686 684 683 681 679 678 677 676 674 673 672 672 672 671 671 670 670 669 668 668 667 667 667 666 667 667 667 667 667 666 666 666 666 666 667 668 670 671 673 674
687 685 682 680 679 677 676 675 673 672 671 670 669 668 667 667 667 666 666 665 665 664 664 664 663 663 663 663 663 663 663 663 663 663 663 663 663 664 666 668 669 671
683 681 679 677 675 674 672 671 670 668 667 666 665 664 663 663 663 662 662 661 661 661 660 660 660 660 659 659 660 660 659 659 660 660 660 660 661 661 662 664 666 667
681 678 676 673 672 670 668 667 666 664 663 661 660 658 658 658 658 658 658 657 657 656 656 656 655 655 655 655 656 656 656 656 657 657 658 658 658 658 659 661 662 663
679 676 673 671 669 667 665 664 662 660 658 656 655 653 652 653 653 653 653 653 653 652 652 651 651 650 650 650 651 651 652 653 653 654 655 655 655 655 655 657 658 659
678 675 672 670 667 664 663 661 659 657 654 652 650 648 648 648 648 648 648 648 648 648 647 647 646 646 646 646 646 647 648 649 650 650 651 652 652 651 651 653 654 655
677 674 670 668 665 662 660 658 656 654 652 649 647 644 644 644 643 644 643 643 643 643 642 642 642 642 642 642 642 643 644 645 645 646 646 646 647 647 647 648 649 651
676 672 669 666 664 661 658 656 654 651 649 646 643 641 640 640 640 640 639 639 639 638 638 637 637 637 637 638 639 639 640 641 641 641 641 641 642 642 642 643 645 647
675 671 668 665 662 659 656 654 652 649 646 643 640 638 637 637 637 636 635 635 635 634 634 633 632 632 633 634 635 635 636 637 636 636 636 636 636 637 638 638 640 642
674 670 667 664 661 658 655 652 649 646 643 640 637 635 634 633 633 632 632 632 631 631 630 630 629 629 630 630 631 631 631 632 632 632 631 631 630 631 633 633 635 638
673 669 666 662 659 656 653 650 646 643 640 637 634 632 630 629 629 628 628 628 628 627 626 626 625 625 626 627 627 626 627 627 628 627 626 625 625 626 627 629 631 633
673 669 665 661 658 655 651 647 643 640 636 633 631 629 627 626 625 625 624 624 624 624 623 622 622 622 623 623 622 622 622 622 622 622 621 620 621 621 622 624 627 629
672 668 664 660 656 653 649 645 641 637 634 630 628 626 625 624 623 622 622 621 621 621 620 618 618 618 618 618 617 617 618 618 617 617 616 616 616 617 618 620 623 626
672 668 663 659 655 651 647 642 638 634 631 628 625 624 622 622 621 620 619 619 618 617 617 615 614 614 614 613 613 613 613 613 613 612 612 612 613 614 615 617 619 622
671 667 663 658 653 649 645 641 636 633 629 626 624 622 621 620 619 618 617 616 615 614 613 612 610 609 609 609 609 609 609 609 608 608 609 609 610 612 613 615 617 619
670 666 661 657 652 647 643 639 634 631 627 625 622 620 619 617 616 615 614 613 612 611 610 608 606 605 605 604 604 604 604 604 604 604 605 607 608 611 612 614 616 619
668 664 659 654 650 644 640 635 632 628 625 622 620 618 616 615 614 613 611 610 609 608 606 605 603 602 601 601 600 600 600 601 601 601 602 605 607 609 611 614 616 619
Wind_Speed
27 26 26 27 27 26 25 24 24 23 22 21 20 21 20 20 19 19 18 18 18 18 18 18 18 18 18 19 20 21 21 21 22 22 24 26 28 29 29 29 29 28
27 26 26 26 26 26 25 25 24 24 23 22 21 21 20 20 20 20 20 19 19 19 19 19 19 18 18 19 21 23 23 24 23 23 23 25 26 27 29 29 30 29
27 26 26 26 26 26 25 25 24 23 23 22 21 20 20 20 20 20 21 21 21 21 20 20 20 19 18 18 19 22 25 26 26 25 25 26 26 26 27 28 28 29
27 26 26 26 25 25 25 25 24 23 22 21 21 20 21 21 21 21 22 22 22 22 22 21 20 19 20 19 19 21 24 25 25 25 24 25 26 25 25 25 26 28
26 25 25 25 25 25 25 24 24 22 21 21 21 21 22 21 21 22 22 22 22 22 22 22 21 20 20 20 20 21 23 23 23 23 22 23 23 23 24 23 25 27
26 26 26 25 25 25 24 24 23 22 22 22 21 21 21 21 21 21 22 22 22 22 21 21 21 20 19 20 20 21 21 21 21 22 22 23 22 22 22 23 24 25
27 28 27 24 24 25 24 23 22 22 22 21 21 21 21 21 21 22 23 22 22 22 22 21 21 20 20 18 19 21 22 21 21 21 22 23 22 22 23 23 25 26
26 28 28 25 24 24 24 24 22 21 21 21 21 21 21 21 21 22 23 22 21 21 22 22 21 20 20 19 19 20 21 22 22 22 23 24 23 23 24 24 25 26
29 31 31 27 24 23 23 24 23 21 21 21 21 21 21 21 21 22 22 21 20 21 21 21 21 20 20 20 20 20 20 20 21 22 23 24 24 25 25 24 25 26
31 32 29 26 25 23 22 23 23 22 22 21 21 21 22 22 22 22 22 21 21 21 20 21 21 20 20 20 21 21 21 20 20 21 22 24 25 25 26 25 25 25
29 27 24 24 25 25 24 24 24 24 23 22 21 22 22 22 23 22 21 21 21 20 20 20 20 20 20 21 21 21 22 21 21 20 21 22 24 25 26 26 26 26
27 26 25 27 27 27 27 26 26 26 26 26 25 24 23 23 23 22 21 21 21 20 20 20 20 20 21 21 21 22 22 22 22 21 21 22 23 25 26 27 27 28
28 27 27 27 27 28 28 28 29 29 29 30 28 25 23 22 22 23 22 22 22 21 21 21 21 21 22 21 22 22 22 22 22 21 21 22 23 25 27 28 29 30
28 27 27 27 27 28 28 29 30 30 30 30 28 25 23 22 22 23 22 22 22 22 21 22 21 22 22 22 22 22 22 22 21 21 21 22 24 26 27 28 30 31
27 26 26 25 26 26 26 26 27 28 28 28 28 25 22 22 22 22 22 23 23 22 22 21 21 22 22 22 22 22 22 23 22 22 23 24 25 26 27 28 30 31
27 26 25 25 25 24 24 24 25 26 26 27 27 24 22 22 22 22 23 22 21 21 21 20 20 22 23 23 22 22 23 23 24 27 27 26 26 25 25 27 30 31
28 27 26 26 26 25 24 25 25 26 26 25 25 24 22 23 23 23 24 22 20 20 20 20 21 22 22 22 22 24 25 25 26 28 28 27 26 26 27 28 29 31
28 27 26 26 26 26 26 26 26 27 26 25 24 23 23 22 22 23 24 22 21 21 21 21 22 22 22 21 23 25 26 27 28 29 27 27 27 29 31 31 30 29
27 27 27 27 27 27 28 28 27 26 26 26 24 23 23 23 22 23 23 21 20 20 21 22 23 23 23 23 25 27 27 28 29 30 29 28 29 30 31 30 29 28
27 28 28 28 28 29 30 30 28 26 26 26 24 23 22 21 20 20 19 19 19 19 20 21 23 24 24 25 27 28 29 29 29 30 30 29 29 31 30 29 29 28
28 29 29 29 30 31 31 30 29 27 26 25 23 22 20 17 16 17 17 18 19 19 20 22 23 23 23 25 28 29 28 28 28 29 30 28 27 29 30 29 28 27
29 30 31 31 31 31 30 30 28 26 25 23 21 19 17 15 16 17 17 18 19 20 21 23 25 24 25 28 29 28 26 26 26 26 26 25 25 27 27 27 27 27
30 31 32 32 31 31 30 29 28 26 25 22 18 16 15 15 16 17 18 18 20 21 23 25 26 26 27 28 28 26 25 24 23 21 21 21 22 22 23 24 25 27
31 32 33 32 31 31 30 29 28 26 24 22 19 17 17 17 17 17 18 20 21 23 24 26 27 28 28 29 28 25 23 22 19 16 15 16 17 19 21 22 24 28
32 33 32 31 32 32 31 29 28 26 24 22 20 19 17 16 17 17 18 20 22 23 25 26 28 29 28 26 25 22 21 21 18 14 14 15 17 17 17 18 21 25
33 33 32 32 32 32 32 29 27 26 24 21 20 20 18 16 17 17 18 20 21 22 23 23 23 23 22 20 19 18 18 19 17 14 15 16 17 18 16 15 17 20
Wind_Direction
293 291 288 286 285 283 282 281 279 277 276 274 272 270 269 266 264 260 257 255 256 258 258 258 258 256 251 246 241 238 237 234 230 227 224 223 223 224 225 224 224 224
294 290 286 284 283 283 283 281 280 278 277 275 274 273 271 269 268 265 261 256 253 252 252 252 254 254 254 251 243 239 238 237 234 230 227 227 225 223 223 223 222 223
294 290 286 284 283 283 284 284 282 279 278 278 276 273 272 270 269 267 263 260 256 254 250 247 245 244 245 246 241 237 237 236 235 232 230 228 227 226 224 222 221 221
292 290 288 286 284 284 284 284 282 280 279 279 279 277 275 272 270 268 264 262 259 257 253 248 244 241 241 241 235 231 232 234 234 232 230 229 227 227 227 224 222 221
290 290 288 286 284 284 283 282 281 280 279 279 280 280 278 275 272 268 265 262 259 257 253 250 246 242 242 243 238 231 229 230 232 232 231 231 229 226 226 224 222 222
292 292 289 285 283 282 281 280 280 280 279 279 278 276 275 274 272 270 267 263 261 258 254 250 248 245 243 243 240 236 231 227 228 231 231 233 232 228 226 224 222 223
291 293 290 285 283 283 281 280 279 278 278 277 277 275 273 272 271 271 269 265 261 257 255 252 250 247 244 240 236 236 237 232 228 227 228 231 232 229 228 225 224 225
291 294 293 286 284 285 284 282 279 277 276 275 275 275 273 272 270 270 269 267 263 258 255 253 251 248 245 243 240 237 235 232 228 225 225 229 230 228 228 227 225 225
297 296 291 284 281 283 283 282 281 282 279 274 272 274 274 272 269 266 266 265 264 262 259 257 255 251 248 247 248 245 237 232 229 224 223 227 228 228 229 227 225 224
301 297 289 284 284 284 283 284 285 287 285 278 274 273 273 272 269 266 264 264 262 262 261 259 258 256 251 249 251 250 246 241 236 229 226 229 230 230 229 228 225 224
300 298 291 290 290 289 289 288 287 286 284 282 278 274 271 270 268 263 261 260 260 260 259 258 257 256 253 251 250 249 248 247 244 239 234 233 234 233 231 229 227 227
299 296 293 292 290 289 288 287 286 284 282 282 279 272 267 264 262 259 259 260 260 260 259 256 256 255 255 253 251 250 249 247 246 245 241 238 238 238 236 233 231 233
300 297 294 293 290 290 289 287 287 284 281 280 276 267 261 258 256 257 260 262 263 262 260 257 255 253 252 251 251 250 249 246 245 245 243 242 243 244 242 237 234 235
305 302 300 298 295 294 292 290 288 285 281 278 274 265 257 254 254 256 259 262 264 263 260 257 254 251 250 249 249 249 248 247 245 243 244 246 247 248 246 241 237 235
310 307 305 302 300 298 295 294 292 289 285 279 273 266 259 257 257 257 258 261 263 261 258 257 254 252 252 251 249 249 250 248 245 243 245 247 247 247 246 242 239 236
313 309 307 305 303 300 298 297 296 293 288 281 275 268 262 260 260 257 258 260 262 263 261 259 256 255 255 253 249 249 250 248 246 245 246 246 245 244 241 240 238 235
313 312 312 310 307 302 300 300 299 297 292 284 277 270 265 263 261 260 261 262 264 265 263 262 261 260 258 253 250 250 248 246 245 246 245 245 244 239 236 239 239 234
312 313 313 312 310 307 305 303 300 298 296 289 278 270 268 267 264 264 262 261 261 263 264 264 264 263 260 256 254 253 251 247 247 247 245 242 239 236 237 240 240 233
314 315 314 313 312 310 307 304 300 296 293 290 283 274 270 268 268 267 262 258 258 260 262 263 263 263 261 259 258 256 254 252 251 251 250 243 236 235 236 236 235 231
318 317 314 313 313 312 308 303 299 294 290 288 284 278 273 270 269 268 262 259 260 260 261 260 261 262 260 258 258 258 258 257 255 255 254 247 240 237 235 232 230 225
318 317 314 313 312 312 308 303 298 294 290 285 277 274 274 271 272 272 268 268 267 266 265 264 262 262 259 257 259 262 263 262 260 258 255 251 244 237 233 229 225 220
316 316 314 312 311 310 306 303 299 295 293 287 278 275 276 274 275 275 273 271 270 267 266 264 264 262 258 259 263 266 267 264 261 258 255 252 245 235 228 224 219 212
315 315 312 310 309 308 305 301 298 297 296 294 288 285 283 279 277 275 272 269 267 265 263 263 265 263 260 264 269 269 265 262 259 254 247 242 235 223 215 213 210 205
315 313 310 307 306 305 303 299 296 294 293 292 291 288 283 280 277 272 267 265 263 261 261 262 265 267 267 271 273 267 259 256 251 238 225 218 210 203 201 201 201 201
314 310 307 305 304 302 298 294 291 289 287 286 286 285 282 280 279 273 267 265 264 263 263 264 266 270 270 270 268 262 253 250 239 213 196 192 186 184 187 191 194 196
311 308 305 304 302 299 296 292 289 287 285 283 283 286 286 283 279 276 270 269 269 269 271 271 270 271 271 268 264 258 252 245 226 193 176 176 174 171 170 172 180 187